LiveATC.Net - Listen to live air traffic control over the Internet!


ICAO: KSLE  IATA: SLE   Airport: McNary Field Airport
City: Salem   State/Province: Oregon
Country: United States   Continent: North America
KSLE METAR Weather: KSLE 260656Z AUTO 20005KT 10SM BKN030 OVC037 08/05 A3035 RMK AO2 SLP278 T00780050
KSLE Flight Activity (FlightAware)
KSLE Airport Info   (iFlightPlanner)
KSLE VFR Sectional Chart   (iFlightPlanner) 
KSLE IFR Low Chart   (iFlightPlanner) 

KSLE Gnd/Twr
Feed Status: UP   Listeners: 0
Listen in your browser - HTML5 player (in browser, HTML5)
Click here to listen with your own player (launches your MP3 player)
Archive Access: KSLE Gnd/Twr
FacilityFrequency
Salem Ground121.900
Salem Tower119.100

NOTICE

Unauthorized use prohibited. See LiveATC.net Terms of Service


Airport/ARTCC Code
Frequency Search
(e.g., 124.400, 128.75)
Site-wide search
 


Browse Feeds
Top 50 Feeds
Coverage Map
Bad Weather Areas

LiveATC FAQ
Offer LiveATC feed
Contact LiveATC.net
Press Inquiries

LiveATC on iPhone
LiveATC on Android

Windows Phone
Windows 8/10

LiveATC Mobile
(Mobile browser)

ATC Audio Archives
Interesting Recordings

LiveATC Forums


Home Page
About LiveATC.net
Make a Donation
Terms of Use
Privacy Policy

Canadian Air Freqs

AIRMETs/SIGMETs

FAA Airport Status
Nat'l Airspace Status
Arrival Demand Charts


Server Software By:
Icecast.org
Liquidsoap